Volver al catálogo

ATLAS 5 CENTAUR R/B

ActivoHEO
NORAD 43652·ROCKET BODY·🇺🇸 United States

Lanzado Oct 17, 2018 desde Cape Canaveral Space Force Station

Loading…

Próximos Pases (próximas 24 horas)

TLE

EnvejeciendoSource: Space-Track

Época: Sep 1, 2026, 03:34 UTC

1 43652U 18079B   26244.14872479 -.00000128  00000-0  00000+0 0  9996
2 43652  13.3958  23.1752 4706219 341.6242   5.8152  1.84080539 49442

Sigue ATLAS 5 CENTAUR R/B en tiempo real con AllMySat

Download on the App Store